Tracking 25195 objects as of 20-Jan-2022
HD Live streaming from Space Station
objects crossing your sky now

GAOFEN 9 04

Track GAOFEN 9 04 now!
10-day predictions


NORAD ID: 46025
Int'l Code: 2020-054A
Perigee: 493.8 km
Apogee: 509.8 km
Inclination: 97.4 °
Period: 94.5 minutes
Semi major axis: 6872 km
RCS: Unknown
Launch date: August 6, 2020
Source: People's Republic of China (PRC)
Launch site: Jiuquan Satellite Launch Center, China (JSC)
aabbcc
Your satellite tracking list
Your tracking list is empty




NASA's NSSDC Master Catalog

Two Line Element Set (TLE):
1 46025U 20054A   22020.23377966  .00003524  00000-0  14949-3 0  9991
2 46025  97.4192  98.5093 0011683 184.9550 260.0032 15.23710511 81004
Source of the keplerian elements: AFSPC